Volver al catálogo

COSMOS 2165

ActivoMilitarPO
NORAD 21779·PAYLOAD·🇷🇺 Russia

Lanzado Nov 12, 1991 desde Plesetsk Cosmodrome

Loading…

Próximos Pases (próximas 24 horas)

TLE

ActualizadoSource: Space-Track

Época: Sep 14, 2026, 12:01 UTC

1 21779U 91077A   26257.50088315  .00000035  00000-0  13203-3 0  9992
2 21779  82.6106 175.1674 0009560 206.4466 327.8403 12.64923084608280

Sigue COSMOS 2165 en tiempo real con AllMySat

Download on the App Store